| time (UTC) | temp C | wind direction | speed KPH | gust KPH | rain 1hr cm | rain 24hr cm | rain mn cm | humidity % | barometer mb |
| 20260502231412 | 12 | 300 | 4.8 | 6.4 | 0.00 | 0.00 | 0.00 | 71 | 1020.3 |
| 20260502230231 | 12 | 300 | 3.2 | 4.8 | 0.00 | 0.00 | 0.00 | 73 | 1020.4 |
| 20260502225104 | 12 | 300 | 4.8 | 6.4 | 0.00 | 0.00 | 0.00 | 71 | 1020.3 |
| 20260502223936 | 12 | 300 | 6.4 | 6.4 | 0.00 | 0.00 | 0.00 | 67 | 1020.3 |
| 20260502222809 | 12 | 300 | 3.2 | 8.0 | 0.00 | 0.00 | 0.00 | 70 | 1020.4 |
| 20260502221552 | 12 | 294 | 9.7 | 9.7 | 0.00 | 0.00 | 0.00 | 66 | 1020.4 |
| 20260502220412 | 13 | 306 | 8.0 | 8.0 | 0.00 | 0.00 | 0.00 | 65 | 1020.4 |
| 20260502215244 | 13 | 300 | 6.4 | 8.0 | 0.00 | 0.00 | 0.00 | 65 | 1020.5 |
| 20260502214117 | 13 | 296 | 6.4 | 8.0 | 0.00 | 0.00 | 0.00 | 66 | 1020.5 |
| 20260502212949 | 13 | 294 | 6.4 | 6.4 | 0.00 | 0.00 | 0.00 | 64 | 1020.4 |
| 20260502211732 | 14 | 324 | 3.2 | 9.7 | 0.00 | 0.00 | 0.00 | 62 | 1020.5 |
| 20260502210551 | 14 | 329 | 6.4 | 9.7 | 0.00 | 0.00 | 0.00 | 64 | 1020.5 |
| 20260502205424 | 14 | 306 | 6.4 | 6.4 | 0.00 | 0.00 | 0.00 | 60 | 1020.4 |
| 20260502204256 | 14 | 306 | 0.0 | 4.8 | 0.00 | 0.00 | 0.00 | 62 | 1020.5 |
| 20260502203128 | 15 | 306 | 6.4 | 6.4 | 0.00 | 0.00 | 0.00 | 59 | 1020.5 |
| 20260502201912 | 14 | 301 | 4.8 | 6.4 | 0.00 | 0.00 | 0.00 | 65 | 1020.5 |
| 20260502200731 | 14 | 301 | 6.4 | 8.0 | 0.00 | 0.00 | 0.00 | 64 | 1020.6 |
| 20260502195604 | 14 | 296 | 8.0 | 8.0 | 0.00 | 0.00 | 0.00 | 65 | 1020.6 |
| 20260502194436 | 14 | 288 | 8.0 | 8.0 | 0.00 | 0.00 | 0.00 | 63 | 1020.6 |
| 20260502193309 | 14 | 306 | 6.4 | 6.4 | 0.00 | 0.00 | 0.00 | 65 | 1020.5 |
| 20260502192052 | 14 | 306 | 8.0 | 8.0 | 0.00 | 0.00 | 0.00 | 63 | 1020.5 |
| 20260502190911 | 14 | 306 | 6.4 | 8.0 | 0.00 | 0.00 | 0.00 | 63 | 1020.5 |
| 20260502185744 | 15 | 300 | 8.0 | 8.0 | 0.00 | 0.00 | 0.00 | 61 | 1020.4 |
| 20260502184616 | 15 | 296 | 4.8 | 6.4 | 0.00 | 0.00 | 0.00 | 61 | 1020.3 |
| 20260502183449 | 15 | 296 | 6.4 | 6.4 | 0.00 | 0.00 | 0.00 | 59 | 1020.3 |
| 20260502182232 | 16 | 285 | 6.4 | 8.0 | 0.00 | 0.00 | 0.00 | 54 | 1020.1 |
| 20260502181051 | 16 | 296 | 6.4 | 6.4 | 0.00 | 0.00 | 0.00 | 56 | 1020.0 |
| 20260502170104 | 18 | 276 | 8.0 | 8.0 | 0.00 | 0.00 | 0.00 | 46 | 1019.6 |
| 20260502163809 | 20 | 228 | 4.8 | 9.7 | 0.00 | 0.00 | 0.00 | 40 | 1019.7 |
| 20260502162552 | 21 | 258 | 6.4 | 9.7 | 0.00 | 0.00 | 0.00 | 38 | 1019.7 |
| 20260502161411 | 22 | 274 | 6.4 | 6.4 | 0.00 | 0.00 | 0.00 | 38 | 1019.8 |
| 20260502160244 | 22 | 174 | 4.8 | 9.7 | 0.00 | 0.00 | 0.00 | 35 | 1019.9 |
| 20260502151551 | 22 | 210 | 9.7 | 12.9 | 0.00 | 0.00 | 0.00 | 32 | 1020.2 |
| 20260502150424 | 22 | 180 | 17.7 | 19.3 | 0.00 | 0.00 | 0.00 | 33 | 1020.3 |
| 20260502130718 | 22 | 6 | 3.2 | 8.0 | 0.00 | 0.00 | 0.00 | 31 | 1021.9 |
| 20260502123206 | 21 | 216 | 6.4 | 11.3 | 0.00 | 0.00 | 0.00 | 31 | 1022.3 |
| 20260502122025 | 21 | 216 | 8.0 | 14.5 | 0.00 | 0.00 | 0.00 | 32 | 1022.5 |
| 20260502120856 | 21 | 126 | 4.8 | 9.7 | 0.00 | 0.00 | 0.00 | 33 | 1022.6 |
| 20260502115728 | 21 | 122 | 12.9 | 12.9 | 0.00 | 0.00 | 0.00 | 32 | 1022.6 |
| 20260502114601 | 21 | 216 | 4.8 | 14.5 | 0.00 | 0.00 | 0.00 | 32 | 1022.8 |
| 20260502113344 | 21 | 222 | 6.4 | 9.7 | 0.00 | 0.00 | 0.00 | 34 | 1023.0 |
| 20260502112203 | 21 | 210 | 11.3 | 12.9 | 0.00 | 0.00 | 0.00 | 34 | 1023.1 |
| 20260502111036 | 20 | 246 | 3.2 | 17.7 | 0.00 | 0.00 | 0.00 | 35 | 1023.2 |
| 20260502105909 | 20 | 104 | 4.8 | 14.5 | 0.00 | 0.00 | 0.00 | 36 | 1023.4 |
| 20260502104741 | 20 | 132 | 4.8 | 14.5 | 0.00 | 0.00 | 0.00 | 34 | 1023.4 |
| 20260502103524 | 20 | 204 | 4.8 | 11.3 | 0.00 | 0.00 | 0.00 | 34 | 1023.5 |
| 20260502102343 | 20 | 168 | 11.3 | 11.3 | 0.00 | 0.00 | 0.00 | 35 | 1023.7 |
| 20260502101215 | 20 | 162 | 9.7 | 11.3 | 0.00 | 0.00 | 0.00 | 35 | 1023.8 |
| 20260502091354 | 19 | 105 | 6.4 | 11.3 | 0.00 | 0.00 | 0.00 | 38 | 1024.3 |
| 20260502090227 | 18 | 98 | 6.4 | 11.3 | 0.00 | 0.00 | 0.00 | 36 | 1024.4 |
| 20260502070546 | 17 | 109 | 3.2 | 6.4 | 0.00 | 0.00 | 0.00 | 47 | 1025.0 |
| 20260502065419 | 17 | 135 | 3.2 | 3.2 | 0.00 | 0.00 | 0.00 | 46 | 1025.1 |
| 20260502064251 | 16 | 186 | 3.2 | 4.8 | 0.00 | 0.00 | 0.00 | 50 | 1025.1 |
| 20260502063124 | 16 | 198 | 3.2 | 4.8 | 0.00 | 0.00 | 0.00 | 49 | 1025.2 |
| 20260502061908 | 16 | 216 | 3.2 | 4.8 | 0.00 | 0.00 | 0.00 | 48 | 1025.3 |
| 20260502060726 | 16 | 234 | 3.2 | 4.8 | 0.00 | 0.00 | 0.00 | 47 | 1025.3 |
| 20260502055559 | 15 | 288 | 3.2 | 4.8 | 0.00 | 0.00 | 0.00 | 51 | 1025.3 |
| 20260502054431 | 15 | 306 | 6.4 | 9.7 | 0.00 | 0.00 | 0.00 | 44 | 1025.4 |
| 20260502053304 | 14 | 300 | 6.4 | 9.7 | 0.00 | 0.00 | 0.00 | 47 | 1025.4 |
| 20260502052047 | 13 | 311 | 6.4 | 9.7 | 0.00 | 0.00 | 0.00 | 49 | 1025.4 |
| 20260502050907 | 13 | 306 | 8.0 | 9.7 | 0.00 | 0.00 | 0.00 | 50 | 1025.4 |
| 20260502045739 | 12 | 285 | 4.8 | 9.7 | 0.00 | 0.00 | 0.00 | 55 | 1025.4 |
| 20260502044611 | 11 | 302 | 3.2 | 8.0 | 0.00 | 0.00 | 0.00 | 57 | 1025.3 |
| 20260502043444 | 10 | 294 | 8.0 | 8.0 | 0.00 | 0.00 | 0.00 | 55 | 1025.3 |
| 20260502042227 | 10 | 288 | 6.4 | 8.0 | 0.00 | 0.00 | 0.00 | 59 | 1025.4 |
| 20260502041047 | 10 | 300 | 4.8 | 4.8 | 0.00 | 0.00 | 0.00 | 67 | 1025.4 |
| 20260502035919 | 10 | 300 | 3.2 | 3.2 | 0.00 | 0.00 | 0.00 | 65 | 1025.3 |
| 20260502034752 | 10 | 291 | 3.2 | 4.8 | 0.00 | 0.00 | 0.00 | 67 | 1025.3 |
| 20260502033624 | 10 | 291 | 4.8 | 4.8 | 0.00 | 0.00 | 0.00 | 58 | 1025.3 |
| 20260502032407 | 10 | 291 | 4.8 | 4.8 | 0.00 | 0.00 | 0.00 | 62 | 1025.3 |
| 20260502031226 | 10 | 291 | 4.8 | 6.4 | 0.00 | 0.00 | 0.00 | 57 | 1025.3 |
| 20260502030058 | 10 | 297 | 4.8 | 8.0 | 0.00 | 0.00 | 0.00 | 68 | 1025.4 |
| 20260502024931 | 10 | 297 | 6.4 | 8.0 | 0.00 | 0.00 | 0.00 | 60 | 1025.4 |
| 20260502023803 | 10 | 297 | 6.4 | 8.0 | 0.00 | 0.00 | 0.00 | 58 | 1025.5 |
| 20260502022546 | 10 | 301 | 8.0 | 8.0 | 0.00 | 0.00 | 0.00 | 57 | 1025.5 |
| 20260502021405 | 10 | 302 | 6.4 | 8.0 | 0.00 | 0.00 | 0.00 | 63 | 1025.5 |
| 20260502020237 | 10 | 301 | 6.4 | 6.4 | 0.00 | 0.00 | 0.00 | 65 | 1025.6 |
| 20260502015110 | 10 | 300 | 6.4 | 8.0 | 0.00 | 0.00 | 0.00 | 56 | 1025.6 |
| 20260502013943 | 10 | 306 | 6.4 | 8.0 | 0.00 | 0.00 | 0.00 | 64 | 1025.8 |
| 20260502012726 | 10 | 306 | 6.4 | 6.4 | 0.00 | 0.00 | 0.00 | 63 | 1025.8 |
| 20260502011545 | 10 | 306 | 3.2 | 6.4 | 0.00 | 0.00 | 0.00 | 65 | 1025.8 |
| 20260502010417 | 10 | 297 | 3.2 | 6.4 | 0.00 | 0.00 | 0.00 | 62 | 1025.7 |
| 20260502005250 | 10 | 297 | 3.2 | 6.4 | 0.00 | 0.00 | 0.00 | 60 | 1025.8 |
| 20260502004123 | 10 | 342 | 6.4 | 6.4 | 0.00 | 0.00 | 0.00 | 60 | 1025.8 |
| 20260502002955 | 11 | 297 | 4.8 | 6.4 | 0.00 | 0.00 | 0.00 | 58 | 1025.8 |
| 20260502001828 | 10 | 297 | 6.4 | 6.4 | 0.00 | 0.00 | 0.00 | 57 | 1025.9 |
| 20260502000713 | 11 | 306 | 6.4 | 6.4 | 0.00 | 0.00 | 0.00 | 63 | 1025.8 |
| 20260501235532 | 11 | 288 | 4.8 | 8.0 | 0.00 | 0.00 | 0.00 | 56 | 1025.8 |
| 20260501234405 | 12 | 294 | 9.7 | 9.7 | 0.00 | 0.00 | 0.00 | 53 | 1025.8 |
| 20260501233237 | 11 | 300 | 9.7 | 9.7 | 0.00 | 0.00 | 0.00 | 51 | 1025.9 |